Fort Rucker / Ozark, AL

8:08 AM CDT on August 20, 2017 (GMT -0500)
Fort Rucker / Ozark

Weather History for KHEY - March, 2013

Change the Weather History Date:

Sunday, March 3, 2013

  Actual Average (KOZR) Record (KOZR)
Temperature  
Mean Temperature 41 °F -  
Max Temperature 48 °F 64 °F 82 °F (1997)
Min Temperature 34 °F 43 °F 28 °F (2009)
Degree Days  
Heating Degree Days 24    
Moisture  
Dew Point 24 °F    
Average Humidity 57    
Maximum Humidity 73    
Minimum Humidity 33    
Precipitation  
Precipitation 0.00 in - - ()
Sea Level Pressure  
Sea Level Pressure 30.11 in    
Wind  
Wind Speed 6 mph (NW)    
Max Wind Speed 15 mph    
Max Gust Speed 21 mph    
Visibility 10 miles    
Events      
Averages and records for this station are not official NWS values.
T = Trace of Precipitation, MM = Missing Value Source: NWS Daily Summary

Daily Weather History Graph

Daily Weather History Graph

Search for Another Location

Airport or City:

Trip Planner

Search our weather history database for the weather conditions in past years. The results will help you decide how hot, cold, wet, or windy it might be!

Date:

Astronomy

Mar. 03, 2013 Rise Set
Actual Time 6:06 AM CST 5:42 PM CST
Civil Twilight 5:42 AM CST 6:06 PM CST
Nautical Twilight 5:14 AM CST 6:34 PM CST
Astronomical Twilight 4:46 AM CST 7:03 PM CST
Moon 11:59 PM CST (3/3) 9:46 AM CST (3/3)
Length of Visible Light 12h 24m
Length of Day
11h 35m
Waning Gibbous, 63% of the Moon is Illuminated
Mar 3
Waning Gibbous
Mar 4
Last Quarter
Mar 11
New
Mar 19
First Quarter
Mar 27
Full

Hourly Weather History & Observations

Time (CST) Temp. Windchill Dew Point Humidity Pressure Visibility Wind Dir Wind Speed Gust Speed Precip Events Conditions
12:53 AM 37.9 °F 32.7 °F 25.0 °F 60% 30.09 in 10.0 mi WNW 6.9 mph - N/A   Overcast
1:53 AM 37.0 °F 32.4 °F 25.0 °F 62% 30.08 in 10.0 mi Variable 5.8 mph - N/A   Overcast
2:53 AM 37.0 °F 33.3 °F 26.1 °F 65% 30.08 in 10.0 mi NW 4.6 mph - N/A   Overcast
3:53 AM 37.0 °F 31.6 °F 27.0 °F 67% 30.08 in 10.0 mi NW 6.9 mph - N/A   Overcast
4:53 AM 36.0 °F 31.1 °F 27.0 °F 70% 30.08 in 10.0 mi WNW 5.8 mph - N/A   Overcast
5:53 AM 36.0 °F 32.1 °F 27.0 °F 70% 30.09 in 10.0 mi NW 4.6 mph - N/A   Overcast
6:53 AM 36.0 °F 29.6 °F 27.0 °F 70% 30.11 in 10.0 mi NW 8.1 mph - N/A   Overcast
7:53 AM 37.0 °F 32.4 °F 27.0 °F 67% 30.13 in 10.0 mi WNW 5.8 mph - N/A   Overcast
8:01 AM 37.4 °F 31.4 °F 26.6 °F 65% 30.15 in 10.0 mi West 8.1 mph - N/A   Overcast
8:17 AM 37.4 °F 32.8 °F 26.6 °F 65% 30.15 in 10.0 mi Variable 5.8 mph - N/A   Mostly Cloudy
8:53 AM 37.0 °F 30.4 °F 25.0 °F 62% 30.14 in 10.0 mi NW 9.2 mph 16.1 mph N/A   Scattered Clouds
9:53 AM 41.0 °F 34.3 °F 21.9 °F 47% 30.14 in 10.0 mi NNW 11.5 mph 16.1 mph N/A   Mostly Cloudy
10:53 AM 42.1 °F 36.1 °F 21.9 °F 45% 30.12 in 10.0 mi NNW 10.4 mph 20.7 mph N/A   Scattered Clouds
11:53 AM 44.1 °F 40.1 °F 21.9 °F 42% 30.10 in 10.0 mi Variable 6.9 mph 19.6 mph N/A   Scattered Clouds
12:53 PM 46.0 °F 41.9 °F 21.9 °F 39% 30.08 in 10.0 mi NW 8.1 mph 19.6 mph N/A   Clear
1:53 PM 48.0 °F - 21.0 °F 34% 30.06 in 10.0 mi NNW 15.0 mph 20.7 mph N/A   Clear
2:53 PM 48.9 °F - 21.0 °F 33% 30.05 in 10.0 mi NW 6.9 mph 18.4 mph N/A   Clear
3:53 PM 48.9 °F - 21.0 °F 33% 30.06 in 10.0 mi NW 10.4 mph - N/A   Clear
4:53 PM 48.0 °F - 21.0 °F 34% 30.08 in 10.0 mi NNW 4.6 mph - N/A   Clear
5:53 PM 45.0 °F - 21.9 °F 40% 30.09 in 10.0 mi Calm Calm - N/A   Clear
6:53 PM 37.9 °F - 26.1 °F 62% 30.11 in 10.0 mi Calm Calm - N/A   Clear
7:53 PM 35.1 °F 32.2 °F 26.1 °F 70% 30.13 in 10.0 mi WNW 3.5 mph - N/A   Clear
8:53 PM 37.0 °F - 25.0 °F 62% 30.14 in 10.0 mi Calm Calm - N/A   Clear
9:53 PM 37.0 °F 34.5 °F 25.0 °F 62% 30.14 in 10.0 mi West 3.5 mph - N/A   Clear
10:53 PM 34.0 °F 31.0 °F 26.1 °F 73% 30.14 in 10.0 mi WNW 3.5 mph - N/A   Clear
11:53 PM 34.0 °F 29.8 °F 25.0 °F 70% 30.14 in 10.0 mi WNW 4.6 mph - N/A   Clear